| time (UTC) | temp F | wind direction | speed knots | gust knots | rain 1hr in | rain 24hr in | rain mn in | humidity % | barometer mb |
| 20260502170114 | 62 | 244 | 2.6 | 3.5 | 0.00 | 0.00 | 0.00 | 84 | 1018.8 |
| 20260502164101 | 63 | 227 | 0.9 | 2.6 | 0.00 | 0.00 | 0.00 | 83 | 1019.0 |
| 20260502163556 | 63 | 254 | 0.9 | 1.7 | 0.00 | 0.00 | 0.00 | 83 | 1018.8 |
| 20260502163053 | 63 | 146 | 0.9 | 1.7 | 0.00 | 0.00 | 0.00 | 83 | 1018.7 |
| 20260502162550 | 61 | 99 | 0.9 | 1.7 | 0.00 | 0.00 | 0.00 | 86 | 1018.5 |
| 20260502162048 | 60 | 153 | 0.0 | 1.7 | 0.00 | 0.00 | 0.00 | 89 | 1018.8 |
| 20260502161544 | 60 | 78 | 0.9 | 3.5 | 0.00 | 0.00 | 0.00 | 89 | 1018.9 |
| 20260502161042 | 59 | 105 | 1.7 | 5.2 | 0.00 | 0.00 | 0.00 | 90 | 1018.5 |
| 20260502160540 | 60 | 133 | 0.9 | 2.6 | 0.00 | 0.00 | 0.00 | 89 | 1018.5 |
| 20260502151947 | 55 | 171 | 0.0 | 0.9 | 0.00 | 0.00 | 0.00 | 99 | 1018.1 |
| 20260502151444 | 55 | 122 | 0.0 | 1.7 | 0.00 | 0.00 | 0.00 | 99 | 1018.2 |
| 20260502150941 | 55 | 195 | 0.0 | 0.9 | 0.00 | 0.00 | 0.00 | 99 | 1018.2 |
| 20260502150438 | 55 | 71 | 0.9 | 3.5 | 0.00 | 0.00 | 0.00 | 99 | 1018.1 |
| 20260502130323 | 53 | 153 | 0.0 | 0.0 | 0.00 | 0.00 | 0.00 | 99 | 1017.8 |
| 20260502123809 | 53 | 136 | 0.0 | 0.0 | 0.00 | 0.00 | 0.00 | 99 | 1017.6 |
| 20260502123306 | 53 | 131 | 0.0 | 0.0 | 0.00 | 0.00 | 0.00 | 99 | 1017.6 |
| 20260502122803 | 53 | 132 | 0.0 | 0.0 | 0.00 | 0.00 | 0.00 | 99 | 1017.6 |
| 20260502122259 | 53 | 138 | 0.0 | 0.0 | 0.00 | 0.00 | 0.00 | 99 | 1017.6 |
| 20260502121757 | 53 | 137 | 0.0 | 0.0 | 0.00 | 0.00 | 0.00 | 99 | 1017.4 |
| 20260502121254 | 53 | 157 | 0.0 | 0.0 | 0.00 | 0.00 | 0.00 | 99 | 1017.3 |
| 20260502120751 | 53 | 140 | 0.0 | 0.0 | 0.00 | 0.00 | 0.00 | 99 | 1017.2 |
| 20260502120248 | 53 | 138 | 0.0 | 0.0 | 0.00 | 0.00 | 0.00 | 99 | 1017.3 |
| 20260502115746 | 52 | 133 | 0.0 | 0.0 | 0.00 | 0.00 | 0.00 | 99 | 1017.4 |
| 20260502115242 | 52 | 132 | 0.0 | 0.0 | 0.00 | 0.00 | 0.00 | 99 | 1017.4 |
| 20260502114738 | 52 | 150 | 0.0 | 0.0 | 0.00 | 0.00 | 0.00 | 99 | 1017.5 |
| 20260502114235 | 52 | 135 | 0.0 | 0.0 | 0.00 | 0.00 | 0.00 | 99 | 1017.3 |
| 20260502113732 | 52 | 158 | 0.0 | 0.0 | 0.00 | 0.00 | 0.00 | 99 | 1017.4 |
| 20260502113230 | 52 | 142 | 0.0 | 0.0 | 0.00 | 0.00 | 0.00 | 99 | 1017.3 |
| 20260502112728 | 52 | 153 | 0.0 | 0.0 | 0.00 | 0.00 | 0.00 | 99 | 1017.2 |
| 20260502112226 | 52 | 154 | 0.0 | 0.0 | 0.00 | 0.00 | 0.00 | 99 | 1017.1 |
| 20260502111723 | 52 | 145 | 0.0 | 0.0 | 0.00 | 0.00 | 0.00 | 99 | 1017.2 |
| 20260502111220 | 52 | 147 | 0.0 | 0.0 | 0.00 | 0.00 | 0.00 | 99 | 1017.2 |
| 20260502110717 | 52 | 162 | 0.0 | 0.0 | 0.00 | 0.00 | 0.00 | 98 | 1017.1 |
| 20260502110215 | 52 | 154 | 0.0 | 0.9 | 0.00 | 0.00 | 0.00 | 98 | 1017.0 |
| 20260502105713 | 52 | 251 | 0.9 | 1.7 | 0.00 | 0.00 | 0.00 | 98 | 1016.9 |
| 20260502105209 | 51 | 205 | 0.0 | 0.9 | 0.00 | 0.00 | 0.00 | 98 | 1017.2 |
| 20260502104707 | 52 | 163 | 0.0 | 0.0 | 0.00 | 0.00 | 0.00 | 98 | 1016.8 |
| 20260502104204 | 52 | 169 | 0.0 | 0.0 | 0.00 | 0.00 | 0.00 | 98 | 1016.9 |
| 20260502103701 | 51 | 184 | 0.0 | 0.0 | 0.00 | 0.00 | 0.00 | 98 | 1016.9 |
| 20260502103159 | 52 | 192 | 0.0 | 0.0 | 0.00 | 0.00 | 0.00 | 98 | 1017.0 |
| 20260502102655 | 51 | 181 | 0.0 | 0.0 | 0.00 | 0.00 | 0.00 | 97 | 1017.0 |
| 20260502102152 | 52 | 158 | 0.0 | 0.0 | 0.00 | 0.00 | 0.00 | 97 | 1016.7 |
| 20260502101650 | 52 | 168 | 0.0 | 0.0 | 0.00 | 0.00 | 0.00 | 97 | 1016.8 |
| 20260502101148 | 52 | 207 | 0.0 | 0.0 | 0.00 | 0.00 | 0.00 | 97 | 1016.9 |
| 20260502100646 | 52 | 188 | 0.0 | 0.0 | 0.00 | 0.00 | 0.00 | 97 | 1016.9 |
| 20260502100145 | 52 | 160 | 0.0 | 0.0 | 0.00 | 0.00 | 0.00 | 97 | 1017.2 |
| 20260502091119 | 55 | 173 | 0.0 | 0.9 | 0.00 | 0.00 | 0.00 | 97 | 1016.8 |
| 20260502090615 | 55 | 187 | 0.0 | 2.6 | 0.00 | 0.00 | 0.00 | 97 | 1017.0 |
| 20260502090113 | 54 | 140 | 0.0 | 0.0 | 0.00 | 0.00 | 0.00 | 97 | 1016.8 |
| 20260502071510 | 54 | 154 | 0.0 | 0.0 | 0.00 | 0.00 | 0.00 | 96 | 1017.5 |
| 20260502071008 | 54 | 154 | 0.0 | 0.0 | 0.00 | 0.00 | 0.00 | 96 | 1017.5 |
| 20260502070506 | 54 | 154 | 0.0 | 0.0 | 0.00 | 0.00 | 0.00 | 96 | 1017.4 |
| 20260502070004 | 55 | 154 | 0.0 | 0.0 | 0.00 | 0.00 | 0.00 | 96 | 1017.2 |
| 20260502065502 | 54 | 158 | 0.0 | 0.0 | 0.00 | 0.00 | 0.00 | 96 | 1017.3 |
| 20260502065000 | 55 | 133 | 0.0 | 0.0 | 0.00 | 0.00 | 0.00 | 96 | 1017.4 |
| 20260502064458 | 55 | 146 | 0.0 | 0.0 | 0.00 | 0.00 | 0.00 | 96 | 1017.3 |
| 20260502063954 | 54 | 121 | 0.0 | 0.0 | 0.00 | 0.00 | 0.00 | 96 | 1017.3 |
| 20260502063452 | 54 | 138 | 0.0 | 0.0 | 0.00 | 0.00 | 0.00 | 96 | 1017.4 |
| 20260502062950 | 54 | 131 | 0.0 | 0.0 | 0.00 | 0.00 | 0.00 | 96 | 1017.2 |
| 20260502062447 | 54 | 128 | 0.0 | 0.0 | 0.00 | 0.00 | 0.00 | 96 | 1017.2 |
| 20260502061945 | 54 | 131 | 0.0 | 0.0 | 0.00 | 0.00 | 0.00 | 97 | 1017.3 |
| 20260502061443 | 53 | 141 | 0.0 | 0.0 | 0.00 | 0.00 | 0.00 | 97 | 1017.1 |
| 20260502060938 | 53 | 141 | 0.0 | 0.0 | 0.00 | 0.00 | 0.00 | 96 | 1017.1 |
| 20260502060434 | 53 | 141 | 0.0 | 0.0 | 0.00 | 0.00 | 0.00 | 97 | 1017.3 |
| 20260502055931 | 54 | 141 | 0.0 | 0.0 | 0.00 | 0.00 | 0.00 | 96 | 1017.3 |
| 20260502055429 | 54 | 141 | 0.0 | 0.0 | 0.00 | 0.00 | 0.00 | 96 | 1017.2 |
| 20260502054923 | 54 | 141 | 0.0 | 0.0 | 0.00 | 0.00 | 0.00 | 96 | 1017.4 |
| 20260502054420 | 54 | 141 | 0.0 | 0.0 | 0.00 | 0.00 | 0.00 | 96 | 1017.4 |
| 20260502053918 | 54 | 162 | 0.0 | 0.0 | 0.00 | 0.00 | 0.00 | 96 | 1017.4 |
| 20260502053415 | 54 | 162 | 0.0 | 0.0 | 0.00 | 0.00 | 0.00 | 96 | 1017.4 |
| 20260502052912 | 54 | 165 | 0.0 | 0.0 | 0.00 | 0.00 | 0.00 | 96 | 1017.3 |
| 20260502052411 | 54 | 165 | 0.0 | 0.0 | 0.00 | 0.00 | 0.00 | 96 | 1017.4 |
| 20260502051908 | 54 | 157 | 0.0 | 0.0 | 0.00 | 0.00 | 0.00 | 96 | 1017.4 |
| 20260502051406 | 54 | 170 | 0.0 | 0.0 | 0.00 | 0.00 | 0.00 | 96 | 1017.7 |
| 20260502050903 | 54 | 198 | 0.0 | 0.0 | 0.00 | 0.00 | 0.00 | 96 | 1017.4 |
| 20260502050359 | 54 | 171 | 0.0 | 0.0 | 0.00 | 0.00 | 0.00 | 96 | 1017.6 |
| 20260502045856 | 54 | 169 | 0.0 | 0.0 | 0.00 | 0.00 | 0.00 | 96 | 1017.5 |
| 20260502045353 | 55 | 149 | 0.0 | 0.0 | 0.00 | 0.00 | 0.00 | 96 | 1017.6 |
| 20260502044850 | 55 | 166 | 0.0 | 0.0 | 0.00 | 0.00 | 0.00 | 96 | 1017.4 |
| 20260502044346 | 55 | 166 | 0.0 | 0.0 | 0.00 | 0.00 | 0.00 | 95 | 1017.4 |
| 20260502043843 | 55 | 172 | 0.0 | 0.0 | 0.00 | 0.00 | 0.00 | 95 | 1017.6 |
| 20260502043341 | 55 | 173 | 0.0 | 0.0 | 0.00 | 0.00 | 0.00 | 95 | 1017.5 |
| 20260502042840 | 55 | 181 | 0.0 | 0.0 | 0.00 | 0.00 | 0.00 | 95 | 1017.4 |
| 20260502042338 | 55 | 167 | 0.0 | 0.0 | 0.00 | 0.00 | 0.00 | 95 | 1017.5 |
| 20260502041835 | 55 | 170 | 0.0 | 0.0 | 0.00 | 0.00 | 0.00 | 95 | 1017.4 |
| 20260502041332 | 55 | 164 | 0.0 | 0.0 | 0.00 | 0.00 | 0.00 | 94 | 1017.1 |
| 20260502040829 | 55 | 171 | 0.0 | 0.0 | 0.00 | 0.00 | 0.00 | 94 | 1017.4 |
| 20260502040326 | 55 | 183 | 0.0 | 0.0 | 0.00 | 0.00 | 0.00 | 94 | 1017.1 |
| 20260502035822 | 55 | 163 | 0.0 | 0.0 | 0.00 | 0.00 | 0.00 | 93 | 1017.3 |
| 20260502035319 | 55 | 147 | 0.0 | 0.0 | 0.00 | 0.00 | 0.00 | 93 | 1017.2 |
| 20260502034816 | 55 | 173 | 0.0 | 0.9 | 0.00 | 0.00 | 0.00 | 93 | 1017.2 |
| 20260502034315 | 56 | 173 | 0.0 | 0.0 | 0.00 | 0.00 | 0.00 | 93 | 1017.1 |
| 20260502033813 | 56 | 106 | 0.0 | 0.0 | 0.00 | 0.00 | 0.00 | 92 | 1016.9 |
| 20260502033310 | 56 | 162 | 0.0 | 0.0 | 0.00 | 0.00 | 0.00 | 92 | 1016.9 |
| 20260502032807 | 56 | 144 | 0.0 | 0.9 | 0.00 | 0.00 | 0.00 | 92 | 1016.8 |
| 20260502032305 | 56 | 185 | 0.0 | 0.9 | 0.00 | 0.00 | 0.00 | 91 | 1016.8 |
| 20260502031800 | 57 | 159 | 0.0 | 2.6 | 0.00 | 0.00 | 0.00 | 91 | 1016.6 |
| 20260502031259 | 57 | 171 | 0.0 | 1.7 | 0.00 | 0.00 | 0.00 | 91 | 1016.6 |
| 20260502030757 | 57 | 78 | 0.0 | 2.6 | 0.00 | 0.00 | 0.00 | 90 | 1016.5 |
| 20260502030254 | 57 | 201 | 0.9 | 1.7 | 0.00 | 0.00 | 0.00 | 90 | 1016.6 |
| 20260502025752 | 58 | 136 | 0.0 | 0.9 | 0.00 | 0.00 | 0.00 | 89 | 1016.5 |
| 20260502025250 | 58 | 171 | 0.0 | 0.9 | 0.00 | 0.00 | 0.00 | 88 | 1016.5 |
| 20260502024747 | 59 | 175 | 0.0 | 0.9 | 0.00 | 0.00 | 0.00 | 87 | 1016.5 |
| 20260502024245 | 59 | 190 | 0.0 | 2.6 | 0.00 | 0.00 | 0.00 | 87 | 1016.5 |
| 20260502023743 | 59 | 151 | 0.0 | 1.7 | 0.00 | 0.00 | 0.00 | 86 | 1016.4 |
| 20260502023240 | 60 | 194 | 0.0 | 1.7 | 0.00 | 0.00 | 0.00 | 85 | 1016.5 |
| 20260502022738 | 60 | 216 | 0.9 | 1.7 | 0.00 | 0.00 | 0.00 | 84 | 1016.5 |
| 20260502022233 | 61 | 297 | 0.0 | 1.7 | 0.00 | 0.00 | 0.00 | 83 | 1016.4 |
| 20260502021731 | 61 | 101 | 0.9 | 2.6 | 0.00 | 0.00 | 0.00 | 82 | 1016.3 |
| 20260502021228 | 61 | 170 | 0.0 | 0.9 | 0.00 | 0.00 | 0.00 | 81 | 1016.3 |
| 20260502020725 | 62 | 160 | 0.0 | 1.7 | 0.00 | 0.00 | 0.00 | 80 | 1015.9 |
| 20260502020222 | 62 | 175 | 0.0 | 0.9 | 0.00 | 0.00 | 0.00 | 80 | 1016.0 |
| 20260502015720 | 62 | 148 | 0.0 | 1.7 | 0.00 | 0.00 | 0.00 | 80 | 1016.2 |
| 20260502015216 | 63 | 128 | 0.0 | 0.9 | 0.00 | 0.00 | 0.00 | 79 | 1016.1 |
| 20260502014714 | 63 | 112 | 0.9 | 1.7 | 0.00 | 0.00 | 0.00 | 78 | 1016.4 |
| 20260502014211 | 64 | 64 | 1.7 | 1.7 | 0.00 | 0.00 | 0.00 | 77 | 1016.3 |
| 20260502013707 | 64 | 106 | 0.0 | 1.7 | 0.00 | 0.00 | 0.00 | 76 | 1016.1 |
| 20260502013202 | 64 | 155 | 0.0 | 0.9 | 0.00 | 0.00 | 0.00 | 76 | 1016.1 |
| 20260502012659 | 65 | 199 | 1.7 | 1.7 | 0.00 | 0.00 | 0.00 | 75 | 1016.1 |
| 20260502012157 | 65 | 184 | 0.9 | 2.6 | 0.00 | 0.00 | 0.00 | 74 | 1016.2 |
| 20260502011654 | 66 | 169 | 0.0 | 2.6 | 0.00 | 0.00 | 0.00 | 74 | 1016.2 |
| 20260502011150 | 67 | 201 | 1.7 | 3.5 | 0.00 | 0.00 | 0.00 | 72 | 1016.1 |
| 20260502010648 | 66 | 169 | 0.0 | 1.7 | 0.00 | 0.00 | 0.00 | 73 | 1016.1 |
| 20260502010143 | 67 | 83 | 0.0 | 2.6 | 0.00 | 0.00 | 0.00 | 71 | 1016.1 |
| 20260502005641 | 67 | 42 | 0.9 | 2.6 | 0.00 | 0.00 | 0.00 | 72 | 1016.3 |
| 20260502005139 | 66 | 219 | 0.9 | 3.5 | 0.00 | 0.00 | 0.00 | 72 | 1016.2 |
| 20260502004635 | 67 | 90 | 1.7 | 2.6 | 0.00 | 0.00 | 0.00 | 72 | 1016.2 |
| 20260502004131 | 67 | 266 | 0.9 | 2.6 | 0.00 | 0.00 | 0.00 | 70 | 1016.1 |
| 20260502003630 | 68 | 127 | 0.9 | 2.6 | 0.00 | 0.00 | 0.00 | 70 | 1016.0 |
| 20260502003126 | 68 | 323 | 1.7 | 3.5 | 0.00 | 0.00 | 0.00 | 70 | 1016.2 |
| 20260502002622 | 69 | 157 | 1.7 | 2.6 | 0.00 | 0.00 | 0.00 | 69 | 1016.1 |
| 20260502002120 | 69 | 200 | 0.9 | 2.6 | 0.00 | 0.00 | 0.00 | 69 | 1015.9 |
| 20260502001617 | 68 | 167 | 0.0 | 3.5 | 0.00 | 0.00 | 0.00 | 69 | 1016.2 |
| 20260502001115 | 69 | 201 | 1.7 | 3.5 | 0.00 | 0.00 | 0.00 | 68 | 1016.0 |
| 20260502000613 | 70 | 297 | 0.9 | 3.5 | 0.00 | 0.00 | 0.00 | 67 | 1016.1 |
| 20260502000110 | 69 | 210 | 2.6 | 6.1 | 0.00 | 0.00 | 0.00 | 68 | 1016.2 |
| 20260501235606 | 69 | 333 | 1.7 | 3.5 | 0.00 | 0.00 | 0.00 | 66 | 1016.2 |
| 20260501235102 | 70 | 261 | 3.5 | 3.5 | 0.00 | 0.00 | 0.00 | 66 | 1015.7 |
| 20260501234557 | 69 | 120 | 3.5 | 5.2 | 0.00 | 0.00 | 0.00 | 67 | 1016.0 |
| 20260501234055 | 70 | 193 | 0.9 | 6.1 | 0.00 | 0.00 | 0.00 | 65 | 1016.1 |
| 20260501233553 | 70 | 241 | 1.7 | 6.1 | 0.00 | 0.00 | 0.00 | 66 | 1016.0 |
| 20260501233050 | 71 | 263 | 2.6 | 7.0 | 0.00 | 0.00 | 0.00 | 64 | 1016.2 |
| 20260501232546 | 70 | 253 | 0.9 | 6.1 | 0.00 | 0.00 | 0.00 | 65 | 1016.0 |
| 20260501232043 | 70 | 298 | 2.6 | 7.0 | 0.00 | 0.00 | 0.00 | 66 | 1016.2 |
| 20260501231541 | 71 | 211 | 4.3 | 7.8 | 0.00 | 0.00 | 0.00 | 64 | 1016.2 |
| 20260501231039 | 72 | 151 | 2.6 | 6.1 | 0.00 | 0.00 | 0.00 | 64 | 1016.2 |
| 20260501230538 | 73 | 237 | 5.2 | 7.8 | 0.00 | 0.00 | 0.00 | 62 | 1016.3 |
| 20260501230035 | 73 | 139 | 0.9 | 2.6 | 0.00 | 0.00 | 0.00 | 62 | 1016.2 |
| 20260501225532 | 73 | 20 | 0.9 | 3.5 | 0.00 | 0.00 | 0.00 | 63 | 1016.2 |
| 20260501225028 | 73 | 297 | 3.5 | 7.0 | 0.00 | 0.00 | 0.00 | 62 | 1016.4 |
| 20260501224526 | 73 | 188 | 0.9 | 3.5 | 0.00 | 0.00 | 0.00 | 62 | 1016.3 |
| 20260501224023 | 73 | 144 | 0.9 | 3.5 | 0.00 | 0.00 | 0.00 | 62 | 1016.3 |
| 20260501223520 | 73 | 157 | 0.0 | 2.6 | 0.00 | 0.00 | 0.00 | 63 | 1016.3 |
| 20260501223015 | 73 | 222 | 1.7 | 3.5 | 0.00 | 0.00 | 0.00 | 63 | 1016.4 |
| 20260501222512 | 73 | 41 | 0.9 | 3.5 | 0.00 | 0.00 | 0.00 | 61 | 1016.6 |
| 20260501222009 | 72 | 214 | 0.9 | 7.0 | 0.00 | 0.00 | 0.00 | 64 | 1016.9 |
| 20260501221505 | 73 | 240 | 3.5 | 6.1 | 0.00 | 0.00 | 0.00 | 61 | 1016.7 |
| 20260501221003 | 73 | 24 | 3.5 | 7.0 | 0.00 | 0.00 | 0.00 | 62 | 1016.6 |
| 20260501220501 | 73 | 138 | 0.9 | 3.5 | 0.00 | 0.00 | 0.00 | 63 | 1016.6 |
| 20260501215957 | 73 | 127 | 0.9 | 6.1 | 0.00 | 0.00 | 0.00 | 63 | 1016.6 |
| 20260501215454 | 74 | 29 | 3.5 | 5.2 | 0.00 | 0.00 | 0.00 | 62 | 1017.0 |
| 20260501214949 | 74 | 99 | 1.7 | 6.1 | 0.00 | 0.00 | 0.00 | 63 | 1016.9 |
| 20260501214444 | 74 | 270 | 0.9 | 2.6 | 0.00 | 0.00 | 0.00 | 61 | 1017.1 |
| 20260501213940 | 74 | 256 | 4.3 | 6.1 | 0.00 | 0.00 | 0.00 | 62 | 1017.1 |
| 20260501213438 | 74 | 50 | 1.7 | 5.2 | 0.00 | 0.00 | 0.00 | 61 | 1017.1 |
| 20260501212933 | 74 | 285 | 1.7 | 5.2 | 0.00 | 0.00 | 0.00 | 62 | 1017.1 |
| 20260501212430 | 74 | 359 | 2.6 | 5.2 | 0.00 | 0.00 | 0.00 | 62 | 1017.2 |
| 20260501211926 | 74 | 213 | 2.6 | 5.2 | 0.00 | 0.00 | 0.00 | 62 | 1017.0 |
| 20260501211424 | 74 | 189 | 2.6 | 5.2 | 0.00 | 0.00 | 0.00 | 62 | 1017.1 |
| 20260501210921 | 74 | 164 | 1.7 | 3.5 | 0.00 | 0.00 | 0.00 | 61 | 1017.1 |
| 20260501210418 | 74 | 172 | 1.7 | 3.5 | 0.00 | 0.00 | 0.00 | 62 | 1017.2 |
| 20260501205915 | 74 | 130 | 0.0 | 2.6 | 0.00 | 0.00 | 0.00 | 62 | 1017.2 |
| 20260501205412 | 73 | 166 | 0.9 | 2.6 | 0.00 | 0.00 | 0.00 | 63 | 1017.2 |
| 20260501204909 | 72 | 167 | 0.0 | 6.1 | 0.00 | 0.00 | 0.00 | 65 | 1017.3 |
| 20260501204404 | 74 | 199 | 2.6 | 3.5 | 0.00 | 0.00 | 0.00 | 62 | 1017.2 |
| 20260501203901 | 73 | 203 | 1.7 | 3.5 | 0.00 | 0.00 | 0.00 | 62 | 1017.3 |
| 20260501203358 | 72 | 38 | 0.9 | 5.2 | 0.00 | 0.00 | 0.00 | 64 | 1017.4 |
| 20260501202855 | 72 | 175 | 1.7 | 2.6 | 0.00 | 0.00 | 0.00 | 64 | 1017.4 |
| 20260501202352 | 72 | 250 | 1.7 | 6.1 | 0.00 | 0.00 | 0.00 | 65 | 1017.3 |
| 20260501201849 | 74 | 357 | 0.9 | 3.5 | 0.00 | 0.00 | 0.00 | 63 | 1017.3 |
| 20260501201346 | 73 | 292 | 1.7 | 1.7 | 0.00 | 0.00 | 0.00 | 63 | 1017.6 |
| 20260501200842 | 72 | 143 | 1.7 | 3.5 | 0.00 | 0.00 | 0.00 | 66 | 1017.6 |
| 20260501200339 | 73 | 122 | 0.0 | 1.7 | 0.00 | 0.00 | 0.00 | 65 | 1017.8 |
| 20260501195838 | 73 | 284 | 2.6 | 3.5 | 0.00 | 0.00 | 0.00 | 63 | 1017.6 |
| 20260501195332 | 73 | 263 | 3.5 | 3.5 | 0.00 | 0.00 | 0.00 | 63 | 1017.7 |
| 20260501194829 | 73 | 138 | 0.0 | 2.6 | 0.00 | 0.00 | 0.00 | 64 | 1017.7 |
| 20260501194325 | 73 | 79 | 0.0 | 0.9 | 0.00 | 0.00 | 0.00 | 63 | 1017.6 |
| 20260501193821 | 73 | 289 | 0.9 | 3.5 | 0.00 | 0.00 | 0.00 | 62 | 1018.0 |
| 20260501193320 | 73 | 274 | 2.6 | 5.2 | 0.00 | 0.00 | 0.00 | 63 | 1017.8 |
| 20260501192817 | 73 | 354 | 0.9 | 1.7 | 0.00 | 0.00 | 0.00 | 63 | 1017.8 |
| 20260501192314 | 73 | 202 | 0.9 | 6.1 | 0.00 | 0.00 | 0.00 | 63 | 1017.6 |
| 20260501191811 | 73 | 309 | 1.7 | 5.2 | 0.00 | 0.00 | 0.00 | 63 | 1017.9 |
| 20260501191309 | 73 | 75 | 0.0 | 2.6 | 0.00 | 0.00 | 0.00 | 63 | 1018.1 |
| 20260501190805 | 73 | 316 | 3.5 | 7.0 | 0.00 | 0.00 | 0.00 | 63 | 1018.2 |
| 20260501190301 | 73 | 200 | 1.7 | 1.7 | 0.00 | 0.00 | 0.00 | 62 | 1018.0 |
| 20260501185756 | 73 | 224 | 0.9 | 2.6 | 0.00 | 0.00 | 0.00 | 63 | 1018.0 |
| 20260501185252 | 72 | 258 | 1.7 | 5.2 | 0.00 | 0.00 | 0.00 | 63 | 1018.0 |
| 20260501184749 | 72 | 219 | 1.7 | 2.6 | 0.00 | 0.00 | 0.00 | 64 | 1018.2 |
| 20260501184244 | 71 | 219 | 0.9 | 3.5 | 0.00 | 0.00 | 0.00 | 64 | 1018.4 |
| 20260501183740 | 72 | 118 | 0.9 | 2.6 | 0.00 | 0.00 | 0.00 | 64 | 1018.3 |
| 20260501183238 | 72 | 17 | 1.7 | 3.5 | 0.00 | 0.00 | 0.00 | 63 | 1018.1 |
| 20260501182734 | 71 | 191 | 0.9 | 1.7 | 0.00 | 0.00 | 0.00 | 64 | 1018.3 |
| 20260501182231 | 71 | 175 | 2.6 | 5.2 | 0.00 | 0.00 | 0.00 | 64 | 1018.3 |
| 20260501181728 | 72 | 129 | 0.0 | 3.5 | 0.00 | 0.00 | 0.00 | 63 | 1018.4 |
| 20260501181225 | 71 | 70 | 0.9 | 1.7 | 0.00 | 0.00 | 0.00 | 63 | 1018.2 |
| 20260501180723 | 72 | 141 | 0.9 | 2.6 | 0.00 | 0.00 | 0.00 | 64 | 1018.4 |
| 20260501180218 | 71 | 109 | 0.9 | 2.6 | 0.00 | 0.00 | 0.00 | 62 | 1018.4 |
| 20260501175715 | 69 | 143 | 0.0 | 2.6 | 0.00 | 0.00 | 0.00 | 67 | 1018.4 |
| 20260501175213 | 69 | 172 | 0.9 | 1.7 | 0.00 | 0.00 | 0.00 | 67 | 1018.7 |
| 20260501174709 | 70 | 111 | 0.0 | 1.7 | 0.00 | 0.00 | 0.00 | 68 | 1018.6 |
| 20260501174207 | 71 | 133 | 0.0 | 0.0 | 0.00 | 0.00 | 0.00 | 65 | 1018.7 |